User: anonymous   Login
Location: Unspecified
(0.0000°N, 0.0000°E)
Time: 08:24:35
(UTC+02:00)
Language:

ATLAS 2AS CENTAUR R/B - Orbit

View from above orbital plane
View from above orbital plane
View from above satellite
View from above satellite

Ground track
Ground track

The orbit data is extracted from the following two-line orbital elements,

1 28096U 03054B   15244.10472902 0.00000050  00000-0  74161-4 0    09
2 28096  63.6630 273.5473 0261000 283.8941  76.1059 13.40791102    02
Epoch (UTC): 01 September 2015 02:30:48
Eccentricity: 0.0261000
inclination: 63.6630°
perigee height: 911 km
apogee height: 1301 km
right ascension of ascending node: 273.5473°
argument of perigee: 283.8941°
revolutions per day: 13.40791102
mean anomaly at epoch: 76.1059°
orbit number at epoch: 0

The dashed part of the orbit path shows where the satellite is in the earth's shadow,  

DLR